Time,TemperatureF,DewpointF,PressureIn,WindDirection,WindDirectionDegrees,WindSpeedMPH,WindSpeedGustMPH,Humidity,HourlyPrecipIn,Conditions,Clouds,dailyrainin,SolarRadiationWatts/m^2,SoftwareType,DateUTC
2013-06-25 00:01:00,78.0,76.0,-100.00,East,94,0.0,2.0,93,0.00,,,0.01,0.000000,,2013-06-25 04:01:00,
2013-06-25 00:02:00,78.0,76.0,-100.00,East,94,0.0,2.0,93,0.00,,,0.01,0.000000,,2013-06-25 04:02:00,
2013-06-25 00:11:00,78.0,76.0,-100.00,East,94,0.0,2.0,93,0.00,,,0.01,0.000000,,2013-06-25 04:11:00,
2013-06-25 00:43:00,79.0,75.0,-100.00,East,101,3.0,6.0,88,0.00,,,0.01,0.000000,,2013-06-25 04:43:00,
2013-06-25 00:52:00,79.0,75.0,-100.00,East,101,3.0,6.0,88,0.00,,,0.01,0.000000,,2013-06-25 04:52:00,
2013-06-25 01:01:00,79.0,75.0,-100.00,East,101,3.0,6.0,88,0.00,,,0.01,0.000000,,2013-06-25 05:01:00,
2013-06-25 01:11:00,79.0,75.0,-100.00,East,101,3.0,6.0,88,0.00,,,0.01,0.000000,,2013-06-25 05:11:00,
2013-06-25 01:44:00,79.0,73.0,-100.00,East,97,4.0,8.0,83,0.00,,,-99.99,0.000000,,2013-06-25 05:44:00,
2013-06-25 01:52:00,79.0,73.0,-100.00,East,97,4.0,8.0,83,0.00,,,-99.99,0.000000,,2013-06-25 05:52:00,
2013-06-25 02:01:00,79.0,73.0,-100.00,East,97,4.0,8.0,83,0.00,,,-99.99,0.000000,,2013-06-25 06:01:00,
2013-06-25 02:11:00,79.0,73.0,-100.00,East,97,4.0,8.0,83,0.00,,,-99.99,0.000000,,2013-06-25 06:11:00,
2013-06-25 02:43:00,78.0,73.0,-100.00,East,101,4.0,8.0,84,0.00,,,0.01,0.000000,,2013-06-25 06:43:00,
2013-06-25 02:52:00,78.0,73.0,-100.00,East,101,4.0,8.0,84,0.00,,,0.01,0.000000,,2013-06-25 06:52:00,
2013-06-25 03:02:00,78.0,73.0,-100.00,East,101,4.0,8.0,84,0.00,,,0.01,0.000000,,2013-06-25 07:02:00,
2013-06-25 03:11:00,78.0,73.0,-100.00,East,101,4.0,8.0,84,0.00,,,0.01,0.000000,,2013-06-25 07:11:00,
2013-06-25 03:43:00,78.0,73.0,-100.00,East,101,4.0,7.0,85,0.00,,,-99.99,0.000000,,2013-06-25 07:43:00,
2013-06-25 03:52:00,78.0,73.0,-100.00,East,101,4.0,7.0,85,0.00,,,-99.99,0.000000,,2013-06-25 07:52:00,
2013-06-25 04:02:00,78.0,73.0,-100.00,East,101,4.0,7.0,85,0.00,,,-99.99,0.000000,,2013-06-25 08:02:00,
2013-06-25 04:11:00,78.0,73.0,-100.00,East,101,4.0,7.0,85,0.00,,,-99.99,0.000000,,2013-06-25 08:11:00,
2013-06-25 06:43:00,-999.0,-99.9,-100.00,North,-999,0.0,-999.0,-999,-99.99,,,0.01,,,2013-06-25 10:43:00,
2013-06-25 06:53:00,-999.0,-99.9,-100.00,North,-999,0.0,-999.0,-999,-99.99,,,0.01,,,2013-06-25 10:53:00,
2013-06-25 07:02:00,-999.0,-99.9,-100.00,North,-999,0.0,-999.0,-999,-99.99,,,0.01,,,2013-06-25 11:02:00,
2013-06-25 07:12:00,-999.0,-99.9,-100.00,North,-999,0.0,-999.0,-999,-99.99,,,0.01,,,2013-06-25 11:12:00,
2013-06-25 07:52:00,77.0,74.0,-100.00,ENE,67,0.0,6.0,90,0.00,,,0.01,14.000000,,2013-06-25 11:52:00,
2013-06-25 08:02:00,77.0,74.0,-100.00,ENE,67,0.0,6.0,90,0.00,,,0.01,14.000000,,2013-06-25 12:02:00,
2013-06-25 08:11:00,77.0,74.0,-100.00,ENE,67,0.0,6.0,90,0.00,,,0.01,14.000000,,2013-06-25 12:11:00,
2013-06-25 08:55:00,81.0,74.0,-100.00,East,101,4.0,8.0,80,0.00,,,-99.99,106.000000,,2013-06-25 12:55:00,
2013-06-25 09:02:00,81.0,74.0,-100.00,East,101,4.0,8.0,80,0.00,,,-99.99,106.000000,,2013-06-25 13:02:00,
2013-06-25 09:12:00,81.0,74.0,-100.00,East,101,4.0,8.0,80,0.00,,,-99.99,106.000000,,2013-06-25 13:12:00,
2013-06-25 09:54:00,84.0,-99.9,-100.00,East,89,6.0,-999.0,-999,0.00,,,-99.99,,,2013-06-25 13:54:00,
2013-06-25 10:02:00,84.0,-99.9,-100.00,East,89,6.0,-999.0,-999,0.00,,,-99.99,,,2013-06-25 14:02:00,
2013-06-25 10:11:00,84.0,-99.9,-100.00,East,89,6.0,-999.0,-999,0.00,,,-99.99,,,2013-06-25 14:11:00,
2013-06-25 10:43:00,85.0,73.0,-100.00,East,97,7.0,13.0,67,0.00,,,0.01,449.000000,,2013-06-25 14:43:00,
2013-06-25 10:53:00,85.0,73.0,-100.00,East,97,7.0,13.0,67,0.00,,,0.01,449.000000,,2013-06-25 14:53:00,
2013-06-25 11:02:00,85.0,73.0,-100.00,East,97,7.0,13.0,67,0.00,,,0.01,449.000000,,2013-06-25 15:02:00,
2013-06-25 11:11:00,85.0,73.0,-100.00,East,97,7.0,13.0,67,0.00,,,0.01,449.000000,,2013-06-25 15:11:00,
2013-06-25 11:44:00,87.0,72.0,-100.00,ESE,109,7.0,12.0,62,0.00,,,0.01,594.000000,,2013-06-25 15:44:00,
2013-06-25 11:53:00,87.0,72.0,-100.00,ESE,109,7.0,12.0,62,0.00,,,0.01,594.000000,,2013-06-25 15:53:00,
2013-06-25 12:03:00,87.0,72.0,-100.00,ESE,109,7.0,12.0,62,0.00,,,0.01,594.000000,,2013-06-25 16:03:00,
2013-06-25 12:12:00,87.0,72.0,-100.00,ESE,109,7.0,12.0,62,0.00,,,0.01,594.000000,,2013-06-25 16:12:00,
2013-06-25 12:52:00,87.0,72.0,-100.00,NE,45,4.0,11.0,61,0.00,,,0.01,572.000000,,2013-06-25 16:52:00,
2013-06-25 13:01:00,87.0,72.0,-100.00,NE,45,4.0,11.0,61,0.00,,,0.01,572.000000,,2013-06-25 17:01:00,
2013-06-25 13:11:00,87.0,72.0,-100.00,NE,45,4.0,11.0,61,0.00,,,0.01,572.000000,,2013-06-25 17:11:00,
2013-06-25 13:44:00,89.0,72.0,-100.00,NNE,23,5.0,10.0,57,0.00,,,0.01,474.000000,,2013-06-25 17:44:00,
2013-06-25 13:53:00,89.0,72.0,-100.00,NNE,23,5.0,10.0,57,0.00,,,0.01,474.000000,,2013-06-25 17:53:00,
2013-06-25 14:02:00,89.0,72.0,-100.00,NNE,23,5.0,10.0,57,0.00,,,0.01,474.000000,,2013-06-25 18:02:00,
2013-06-25 14:12:00,89.0,72.0,-100.00,NNE,23,5.0,10.0,57,0.00,,,0.01,474.000000,,2013-06-25 18:12:00,
2013-06-25 14:53:00,91.0,70.0,-100.00,NE,44,3.0,9.0,50,0.00,,,0.01,699.000000,,2013-06-25 18:53:00,
2013-06-25 15:01:00,91.0,70.0,-100.00,NE,44,3.0,9.0,50,0.00,,,0.01,699.000000,,2013-06-25 19:01:00,
2013-06-25 15:12:00,91.0,70.0,-100.00,NE,44,3.0,9.0,50,0.00,,,0.01,699.000000,,2013-06-25 19:12:00,
2013-06-25 15:44:00,92.0,72.0,-100.00,NE,56,0.0,12.0,53,0.00,,,0.01,693.000000,,2013-06-25 19:44:00,
2013-06-25 15:54:00,92.0,72.0,-100.00,NE,56,0.0,12.0,53,0.00,,,0.01,693.000000,,2013-06-25 19:54:00,
2013-06-25 16:02:00,92.0,72.0,-100.00,NE,56,0.0,12.0,53,0.00,,,0.01,693.000000,,2013-06-25 20:02:00,
2013-06-25 16:11:00,92.0,72.0,-100.00,NE,56,0.0,12.0,53,0.00,,,0.01,693.000000,,2013-06-25 20:11:00,
2013-06-25 16:52:00,91.0,71.0,-100.00,NNW,330,6.0,12.0,53,0.00,,,0.01,646.000000,,2013-06-25 20:52:00,
2013-06-25 17:01:00,91.0,71.0,-100.00,NNW,330,6.0,12.0,53,0.00,,,0.01,646.000000,,2013-06-25 21:01:00,
2013-06-25 17:11:00,91.0,71.0,-100.00,NNW,330,6.0,12.0,53,0.00,,,0.01,646.000000,,2013-06-25 21:11:00,
2013-06-25 17:43:00,91.0,74.0,-100.00,West,270,7.0,14.0,58,0.00,,,0.00,496.000000,,2013-06-25 21:43:00,
2013-06-25 17:53:00,91.0,74.0,-100.00,West,270,7.0,14.0,58,0.00,,,0.00,496.000000,,2013-06-25 21:53:00,
2013-06-25 18:01:00,91.0,74.0,-100.00,West,270,7.0,14.0,58,0.00,,,0.00,496.000000,,2013-06-25 22:01:00,
2013-06-25 18:11:00,91.0,74.0,-100.00,West,270,7.0,14.0,58,0.00,,,0.00,496.000000,,2013-06-25 22:11:00,
2013-06-25 18:52:00,76.0,70.0,-100.00,SSE,149,5.0,25.0,83,0.13,,,0.13,194.000000,,2013-06-25 22:52:00,
2013-06-25 19:01:00,76.0,70.0,-100.00,SSE,149,5.0,25.0,83,0.13,,,0.13,194.000000,,2013-06-25 23:01:00,
2013-06-25 19:11:00,76.0,70.0,-100.00,SSE,149,5.0,25.0,83,0.13,,,0.13,194.000000,,2013-06-25 23:11:00,
2013-06-25 19:44:00,77.0,74.0,-100.00,WNW,288,0.0,7.0,91,0.03,,,0.16,37.000000,,2013-06-25 23:44:00,
2013-06-25 19:52:00,77.0,74.0,-100.00,WNW,288,0.0,7.0,91,0.03,,,0.16,37.000000,,2013-06-25 23:52:00,
2013-06-25 20:02:00,77.0,74.0,-100.00,WNW,288,0.0,7.0,91,0.03,,,0.16,37.000000,,2013-06-26 00:02:00,
2013-06-25 20:11:00,77.0,74.0,-100.00,WNW,288,0.0,7.0,91,0.03,,,0.16,37.000000,,2013-06-26 00:11:00,
2013-06-25 21:43:00,78.0,75.0,-100.00,ESE,107,0.0,2.0,91,-99.99,,,0.16,4.000000,,2013-06-26 01:43:00,
2013-06-25 21:53:00,78.0,75.0,-100.00,ESE,107,0.0,2.0,91,-99.99,,,0.16,4.000000,,2013-06-26 01:53:00,
2013-06-25 22:02:00,78.0,75.0,-100.00,ESE,107,0.0,2.0,91,-99.99,,,0.16,4.000000,,2013-06-26 02:02:00,
2013-06-25 22:11:00,78.0,75.0,-100.00,ESE,107,0.0,2.0,91,-99.99,,,0.16,4.000000,,2013-06-26 02:11:00,
2013-06-25 22:43:00,78.0,75.0,-100.00,East,94,0.0,7.0,91,0.00,,,0.16,0.000000,,2013-06-26 02:43:00,
2013-06-25 22:53:00,78.0,75.0,-100.00,East,94,0.0,7.0,91,0.00,,,0.16,0.000000,,2013-06-26 02:53:00,
2013-06-25 23:02:00,78.0,75.0,-100.00,East,94,0.0,7.0,91,0.00,,,0.16,0.000000,,2013-06-26 03:02:00,
2013-06-25 23:11:00,78.0,75.0,-100.00,East,94,0.0,7.0,91,0.00,,,0.16,0.000000,,2013-06-26 03:11:00,
2013-06-25 23:43:00,-999.0,-99.9,-100.00,NNE,32,0.0,-999.0,-999,0.00,,,0.16,,,2013-06-26 03:43:00,
2013-06-25 23:52:00,-999.0,-99.9,-100.00,NNE,32,0.0,-999.0,-999,0.00,,,0.16,,,2013-06-26 03:52:00,